| time (UTC) | temp C | wind direction | speed KPH | gust KPH | rain 1hr cm | rain 24hr cm | rain mn cm | humidity % | barometer mb |
| 20260503192529 | 17 | 317 | 9.7 | 14.5 | 0.00 | 0.00 | 0.00 | 38 | 1010.7 |
| 20260503191025 | 17 | 301 | 3.2 | 17.7 | 0.00 | 0.00 | 0.00 | 38 | 1011.1 |
| 20260503185521 | 17 | 278 | 9.7 | 24.1 | 0.00 | 0.00 | 0.00 | 36 | 1011.3 |
| 20260503184019 | 17 | 233 | 9.7 | 30.6 | 0.00 | 0.00 | 0.00 | 38 | 1011.3 |
| 20260503182517 | 15 | 260 | 4.8 | 11.3 | 0.00 | 0.00 | 0.00 | 40 | 1011.6 |
| 20260503181014 | 16 | 70 | 4.8 | 30.6 | 0.00 | 0.00 | 0.00 | 39 | 1012.1 |
| 20260503175512 | 16 | 183 | 8.0 | 29.0 | 0.00 | 0.00 | 0.00 | 40 | 1011.8 |
| 20260503174008 | 15 | 229 | 3.2 | 14.5 | 0.00 | 0.00 | 0.00 | 43 | 1012.4 |
| 20260503172504 | 15 | 245 | 8.0 | 14.5 | 0.00 | 0.00 | 0.00 | 42 | 1012.6 |
| 20260503171000 | 15 | 272 | 8.0 | 14.5 | 0.00 | 0.00 | 0.00 | 42 | 1013.0 |
| 20260503150936 | 15 | 253 | 6.4 | 20.9 | 0.00 | 0.00 | 0.00 | 41 | 1013.6 |
| 20260503130910 | 10 | 315 | 9.7 | 14.5 | 0.00 | 0.00 | 0.00 | 49 | 1014.1 |
| 20260503080819 | 3 | 272 | 3.2 | 3.2 | 0.00 | 0.00 | 0.00 | 59 | 1015.3 |
| 20260503072308 | 2 | 218 | 0.0 | 0.0 | 0.00 | 0.00 | 0.00 | 62 | 1015.4 |
| 20260503070803 | 1 | 299 | 0.0 | 1.6 | 0.00 | 0.00 | 0.00 | 65 | 1015.5 |
| 20260503053744 | 0 | 118 | 0.0 | 0.0 | 0.00 | 0.00 | 0.00 | 76 | 1016.1 |
| 20260503052241 | 1 | 188 | 0.0 | 0.0 | 0.00 | 0.00 | 0.00 | 76 | 1016.2 |
| 20260503050736 | 1 | 145 | 0.0 | 0.0 | 0.00 | 0.00 | 0.00 | 77 | 1016.2 |
| 20260503045234 | 1 | 150 | 0.0 | 0.0 | 0.00 | 0.00 | 0.00 | 76 | 1016.2 |
| 20260503043730 | 1 | 112 | 0.0 | 0.0 | 0.00 | 0.00 | 0.00 | 78 | 1016.2 |
| 20260503042226 | 0 | 193 | 0.0 | 0.0 | 0.00 | 0.00 | 0.00 | 80 | 1016.3 |
| 20260503040723 | 0 | 201 | 0.0 | 0.0 | 0.00 | 0.00 | 0.00 | 83 | 1016.8 |
| 20260503035221 | 0 | 202 | 0.0 | 0.0 | 0.00 | 0.00 | 0.00 | 83 | 1016.7 |
| 20260503033718 | 0 | 202 | 0.0 | 0.0 | 0.00 | 0.00 | 0.00 | 84 | 1016.5 |
| 20260503032218 | 0 | 202 | 0.0 | 0.0 | 0.00 | 0.00 | 0.00 | 83 | 1016.8 |
| 20260503030714 | 0 | 202 | 0.0 | 0.0 | 0.00 | 0.00 | 0.00 | 83 | 1016.7 |
| 20260503025211 | 1 | 202 | 0.0 | 0.0 | 0.00 | 0.00 | 0.00 | 82 | 1016.8 |
| 20260503023707 | 1 | 202 | 0.0 | 0.0 | 0.00 | 0.00 | 0.00 | 80 | 1016.8 |
| 20260503022205 | 1 | 202 | 0.0 | 0.0 | 0.00 | 0.00 | 0.00 | 78 | 1016.9 |
| 20260503020702 | 1 | 202 | 0.0 | 0.0 | 0.00 | 0.00 | 0.00 | 77 | 1017.0 |
| 20260503015158 | 2 | 202 | 0.0 | 0.0 | 0.00 | 0.00 | 0.00 | 74 | 1017.0 |
| 20260503013655 | 2 | 202 | 0.0 | 0.0 | 0.00 | 0.00 | 0.00 | 70 | 1016.7 |
| 20260503012152 | 2 | 202 | 0.0 | 0.0 | 0.00 | 0.00 | 0.00 | 68 | 1016.9 |
| 20260503010647 | 3 | 202 | 0.0 | 0.0 | 0.00 | 0.00 | 0.00 | 65 | 1016.8 |
| 20260503005145 | 4 | 202 | 0.0 | 0.0 | 0.00 | 0.00 | 0.00 | 61 | 1016.7 |
| 20260503003642 | 5 | 202 | 0.0 | 0.0 | 0.00 | 0.00 | 0.00 | 56 | 1016.6 |
| 20260503002138 | 6 | 209 | 0.0 | 0.0 | 0.00 | 0.00 | 0.00 | 53 | 1016.3 |
| 20260503000635 | 7 | 304 | 0.0 | 1.6 | 0.00 | 0.00 | 0.00 | 50 | 1016.6 |
| 20260502235132 | 7 | 287 | 0.0 | 6.4 | 0.00 | 0.00 | 0.00 | 47 | 1016.5 |
| 20260502233632 | 8 | 317 | 1.6 | 6.4 | 0.00 | 0.00 | 0.00 | 47 | 1016.7 |
| 20260502232129 | 8 | 67 | 0.0 | 3.2 | 0.00 | 0.00 | 0.00 | 45 | 1016.7 |
| 20260502230627 | 8 | 314 | 1.6 | 6.4 | 0.00 | 0.00 | 0.00 | 45 | 1016.7 |
| 20260502225124 | 8 | 50 | 0.0 | 1.6 | 0.00 | 0.00 | 0.00 | 47 | 1016.9 |
| 20260502223621 | 8 | 325 | 0.0 | 6.4 | 0.00 | 0.00 | 0.00 | 46 | 1017.0 |
| 20260502222118 | 8 | 314 | 0.0 | 6.4 | 0.00 | 0.00 | 0.00 | 48 | 1016.8 |
| 20260502220614 | 8 | 20 | 0.0 | 9.7 | 0.00 | 0.00 | 0.00 | 47 | 1016.8 |
| 20260502215110 | 8 | 267 | 0.0 | 1.6 | 0.00 | 0.00 | 0.00 | 47 | 1016.8 |
| 20260502213608 | 8 | 240 | 3.2 | 4.8 | 0.00 | 0.00 | 0.00 | 46 | 1016.7 |
| 20260502212107 | 8 | 278 | 1.6 | 6.4 | 0.00 | 0.00 | 0.00 | 44 | 1016.8 |
| 20260502210603 | 8 | 226 | 1.6 | 4.8 | 0.00 | 0.00 | 0.00 | 45 | 1016.9 |
| 20260502205059 | 8 | 270 | 3.2 | 6.4 | 0.00 | 0.00 | 0.00 | 46 | 1016.9 |
| 20260502203556 | 8 | 296 | 0.0 | 4.8 | 0.00 | 0.00 | 0.00 | 47 | 1017.0 |
| 20260502202054 | 8 | 237 | 3.2 | 14.5 | 0.00 | 0.00 | 0.00 | 45 | 1017.1 |
| 20260502200554 | 8 | 232 | 1.6 | 3.2 | 0.00 | 0.00 | 0.00 | 45 | 1017.3 |
| 20260502195051 | 8 | 336 | 1.6 | 6.4 | 0.00 | 0.00 | 0.00 | 45 | 1017.4 |
| 20260502193547 | 8 | 320 | 0.0 | 3.2 | 0.00 | 0.00 | 0.00 | 47 | 1017.5 |